,,Stat6,,Stat2,,Stat8,,Stat9,,Stat10,,Wind1,,Wind1,
time,status,PA1M_AVG,status,PR1M_SUM,status,RH1M_AVG,status,SR1M_AVG,status,TA1M_AVG,status,W1dAve1m,status,W1sAve1m,
2005-08-19, 00:00:01,VALID,921.229,VALID,0,VALID,100,VALID,-0.0849042,VALID,19.299,VALID,2,VALID,0.523785,
2005-08-19, 00:01:00,VALID,921.23,VALID,0,VALID,100,VALID,-0.0849042,VALID,19.2993,VALID,5,VALID,0.785528,
2005-08-19, 00:02:00,VALID,921.241,VALID,0,VALID,100,VALID,-0.101885,VALID,19.3062,VALID,2,VALID,0.707332,
2005-08-19, 00:03:00,VALID,921.245,VALID,0,VALID,100,VALID,-0.0339617,VALID,19.3022,VALID,2,VALID,0.669398,
2005-08-19, 00:04:00,VALID,921.239,VALID,0,VALID,100,VALID,-0.0849042,VALID,19.2995,VALID,354,VALID,0.86795,
2005-08-19, 00:05:00,VALID,921.229,VALID,0,VALID,100,VALID,-0.0849042,VALID,19.3,VALID,350,VALID,1.1542,
2005-08-19, 00:06:00,VALID,921.249,VALID,0,VALID,100,VALID,-0.101885,VALID,19.299,VALID,357,VALID,0.981286,
2005-08-19, 00:07:00,VALID,921.244,VALID,0,VALID,100,VALID,-0.0679233,VALID,19.306,VALID,2,VALID,0.781613,
2005-08-19, 00:08:01,VALID,921.269,VALID,0,VALID,100,VALID,-0.101885,VALID,19.3159,VALID,350,VALID,0.932292,
2005-08-19, 00:09:00,VALID,921.274,VALID,0,VALID,100,VALID,-0.0679233,VALID,19.299,VALID,346,VALID,1.19231,
2005-08-19, 00:10:00,VALID,921.286,VALID,0,VALID,100,VALID,-0.0849042,VALID,19.3089,VALID,340,VALID,1.04288,
2005-08-19, 00:11:00,VALID,921.275,VALID,0,VALID,100,VALID,-0.101885,VALID,19.3159,VALID,347,VALID,1.25399,
2005-08-19, 00:12:00,VALID,921.267,VALID,0,VALID,100,VALID,-0.0849042,VALID,19.335,VALID,6,VALID,1.63481,
2005-08-19, 00:13:00,VALID,921.264,VALID,0,VALID,100,VALID,-0.101885,VALID,19.3385,VALID,13,VALID,1.42969,
2005-08-19, 00:14:00,VALID,921.242,VALID,0,VALID,100,VALID,-0.0509425,VALID,19.3246,VALID,6,VALID,1.55543,
2005-08-19, 00:15:01,VALID,921.247,VALID,0,VALID,100,VALID,0.0339617,VALID,19.343,VALID,357,VALID,1.01316,
2005-08-19, 00:16:01,VALID,921.237,VALID,0,VALID,100,VALID,0.0509425,VALID,19.3557,VALID,2,VALID,0.571023,
2005-08-19, 00:17:01,VALID,921.233,VALID,0,VALID,100,VALID,0.0339617,VALID,19.3592,VALID,19,VALID,0.591273,
2005-08-19, 00:18:01,VALID,921.254,VALID,0,VALID,100,VALID,0,VALID,19.3822,VALID,10,VALID,0.459635,
2005-08-19, 00:19:00,VALID,921.244,VALID,0,VALID,100,VALID,0.0169808,VALID,19.3748,VALID,339,VALID,0.722842,
2005-08-19, 00:20:01,VALID,921.253,VALID,0,VALID,100,VALID,0.0339617,VALID,19.3559,VALID,4,VALID,0.990854,
2005-08-19, 00:21:01,VALID,921.26,VALID,0,VALID,100,VALID,0.0339617,VALID,19.3356,VALID,16,VALID,1.19059,
2005-08-19, 00:22:01,VALID,921.256,VALID,0,VALID,100,VALID,0.0169808,VALID,19.3562,VALID,7,VALID,1.1707,
2005-08-19, 00:23:00,VALID,921.257,VALID,0,VALID,100,VALID,0.0169808,VALID,19.3356,VALID,17,VALID,1.11523,
2005-08-19, 00:24:00,VALID,921.269,VALID,0,VALID,100,VALID,0.0339617,VALID,19.3428,VALID,14,VALID,1.40339,
2005-08-19, 00:25:00,VALID,921.266,VALID,0,VALID,100,VALID,0.0169808,VALID,19.3525,VALID,5,VALID,1.06176,
2005-08-19, 00:26:00,VALID,921.268,VALID,0,VALID,100,VALID,0.0339617,VALID,19.3562,VALID,8,VALID,1.1317,
2005-08-19, 00:27:00,VALID,921.271,VALID,0,VALID,100,VALID,0,VALID,19.3525,VALID,356,VALID,0.873047,
2005-08-19, 00:28:01,VALID,921.258,VALID,0,VALID,100,VALID,0.0339617,VALID,19.343,VALID,5,VALID,1.01296,
2005-08-19, 00:29:00,VALID,921.258,VALID,0,VALID,100,VALID,0.0339617,VALID,19.3398,VALID,15,VALID,0.85032,
2005-08-19, 00:30:00,VALID,921.261,VALID,0,VALID,100,VALID,-0.0509425,VALID,19.3542,VALID,3,VALID,0.74638,
2005-08-19, 00:31:00,VALID,921.255,VALID,0,VALID,100,VALID,-0.0679233,VALID,19.3542,VALID,5,VALID,0.529119,
2005-08-19, 00:32:00,VALID,921.251,VALID,0,VALID,100,VALID,-0.0339617,VALID,19.3569,VALID,342,VALID,0.169158,
2005-08-19, 00:33:01,VALID,921.238,VALID,0,VALID,100,VALID,-0.0169808,VALID,19.3631,VALID,347,VALID,0.331364,
2005-08-19, 00:34:00,VALID,921.217,VALID,0,VALID,100,VALID,-0.0509425,VALID,19.3574,VALID,1,VALID,1.06399,
2005-08-19, 00:35:00,VALID,921.212,VALID,0,VALID,100,VALID,-0.0679233,VALID,19.3375,VALID,6,VALID,1.21875,
2005-08-19, 00:36:01,VALID,921.209,VALID,0,VALID,100,VALID,-0.0509425,VALID,19.3445,VALID,9,VALID,1.18459,
2005-08-19, 00:37:00,VALID,921.206,VALID,0,VALID,100,VALID,-0.0679233,VALID,19.3378,VALID,24,VALID,0.90968,
2005-08-19, 00:38:01,VALID,921.187,VALID,0,VALID,100,VALID,-0.0679233,VALID,19.3249,VALID,16,VALID,1.38105,
2005-08-19, 00:39:01,VALID,921.185,VALID,0,VALID,100,VALID,-0.0849042,VALID,19.341,VALID,22,VALID,1.07552,
2005-08-19, 00:40:00,VALID,921.175,VALID,0,VALID,100,VALID,-0.101885,VALID,19.3117,VALID,9,VALID,1.24128,
2005-08-19, 00:41:00,VALID,921.172,VALID,0,VALID,99.9954,VALID,-0.0509425,VALID,19.3149,VALID,25,VALID,1.36667,
2005-08-19, 00:42:00,VALID,921.176,VALID,0,VALID,100,VALID,-0.0679233,VALID,19.3216,VALID,19,VALID,1.15898,
2005-08-19, 00:43:00,VALID,921.168,VALID,0,VALID,100,VALID,-0.0509425,VALID,19.3122,VALID,13,VALID,0.845424,
2005-08-19, 00:44:01,VALID,921.178,VALID,0,VALID,100,VALID,-0.0679233,VALID,19.3189,VALID,7,VALID,0.77255,
2005-08-19, 00:45:00,VALID,921.161,VALID,0,VALID,99.9807,VALID,0,VALID,19.298,VALID,350,VALID,0.826672,
2005-08-19, 00:46:00,VALID,921.158,VALID,0,VALID,100,VALID,0,VALID,19.2916,VALID,326,VALID,0.436198,
2005-08-19, 00:47:01,VALID,921.168,VALID,0,VALID,100,VALID,0,VALID,19.2884,VALID,302,VALID,0.611683,
2005-08-19, 00:48:00,VALID,921.154,VALID,0,VALID,100,VALID,0.0169808,VALID,19.2586,VALID,297,VALID,0.581845,
2005-08-19, 00:49:00,VALID,921.152,VALID,0,VALID,100,VALID,0,VALID,19.236,VALID,321,VALID,0.306784,
2005-08-19, 00:50:01,VALID,921.156,VALID,0,VALID,100,VALID,0,VALID,19.2337,VALID,321,VALID,0.277699,
2005-08-19, 00:51:01,VALID,921.149,VALID,0,VALID,100,VALID,0.0169808,VALID,19.2297,VALID,328,VALID,0.266135,
2005-08-19, 00:52:00,VALID,921.144,VALID,0,VALID,100,VALID,0,VALID,19.2265,VALID,344,VALID,0.731027,
2005-08-19, 00:53:01,VALID,921.142,VALID,0,VALID,100,VALID,0,VALID,19.2074,VALID,351,VALID,0.839753,
2005-08-19, 00:54:00,VALID,921.136,VALID,0,VALID,100,VALID,0.0169808,VALID,19.2042,VALID,344,VALID,0.641959,
2005-08-19, 00:55:00,VALID,921.119,VALID,0,VALID,100,VALID,0,VALID,19.2111,VALID,318,VALID,0.280134,
2005-08-19, 00:56:00,VALID,921.102,VALID,0,VALID,100,VALID,0,VALID,19.2141,VALID,332,VALID,0.423295,
2005-08-19, 00:57:00,VALID,921.097,VALID,0,VALID,100,VALID,0,VALID,19.23,VALID,335,VALID,0.656059,
2005-08-19, 00:58:00,VALID,921.083,VALID,0,VALID,100,VALID,-0.0169808,VALID,19.2503,VALID,8,VALID,0.747713,
2005-08-19, 00:59:00,VALID,921.055,VALID,0,VALID,100,VALID,0,VALID,19.2272,VALID,5,VALID,1.02489,
2005-08-19, 01:00:00,VALID,921.056,VALID,0,VALID,99.9906,VALID,0,VALID,19.221,VALID,7,VALID,0.800071,
2005-08-19, 01:01:01,VALID,921.05,VALID,0,VALID,99.9919,VALID,0.0169808,VALID,19.2076,VALID,356,VALID,0.806726,
2005-08-19, 01:02:01,VALID,921.042,VALID,0,VALID,99.9049,VALID,0,VALID,19.2004,VALID,334,VALID,0.638672,
2005-08-19, 01:03:00,VALID,921.045,VALID,0,VALID,99.9507,VALID,0,VALID,19.2042,VALID,336,VALID,0.332849,
2005-08-19, 01:04:00,VALID,921.04,VALID,0,VALID,99.9888,VALID,0,VALID,19.2176,VALID,333,VALID,0.710243,
2005-08-19, 01:05:01,VALID,921.046,VALID,0,VALID,99.8782,VALID,-0.0339617,VALID,19.2014,VALID,292,VALID,0.813072,
2005-08-19, 01:06:00,VALID,921.036,VALID,0,VALID,99.7688,VALID,0.0169808,VALID,19.2076,VALID,292,VALID,0.578683,
2005-08-19, 01:07:00,VALID,921.036,VALID,0,VALID,99.9247,VALID,0,VALID,19.2337,VALID,291,VALID,0.192649,
2005-08-19, 01:08:00,VALID,921.022,VALID,0,VALID,100,VALID,0,VALID,19.2466,VALID,291,VALID,0.2996,
2005-08-19, 01:09:00,VALID,921.002,VALID,0,VALID,100,VALID,0,VALID,19.2526,VALID,340,VALID,0.422057,
2005-08-19, 01:10:00,VALID,920.993,VALID,0,VALID,100,VALID,0,VALID,19.2335,VALID,347,VALID,0.782738,
2005-08-19, 01:11:01,VALID,920.976,VALID,0,VALID,99.9624,VALID,0.0169808,VALID,19.2071,VALID,17,VALID,0.994731,
2005-08-19, 01:12:00,VALID,920.966,VALID,0.2,VALID,99.8044,VALID,0.0169808,VALID,19.1719,VALID,7,VALID,0.972486,
2005-08-19, 01:13:00,VALID,920.961,VALID,0,VALID,99.7129,VALID,0,VALID,19.1753,VALID,3,VALID,0.761161,
2005-08-19, 01:14:01,VALID,920.955,VALID,0,VALID,99.5527,VALID,0,VALID,19.1592,VALID,353,VALID,0.860352,
2005-08-19, 01:15:00,VALID,920.955,VALID,0,VALID,99.4293,VALID,0.0169808,VALID,19.1398,VALID,337,VALID,0.552734,
2005-08-19, 01:16:00,VALID,920.932,VALID,0,VALID,99.4827,VALID,0.0169808,VALID,19.1493,VALID,342,VALID,0.582485,
2005-08-19, 01:17:00,VALID,920.917,VALID,0,VALID,99.4255,VALID,0,VALID,19.146,VALID,356,VALID,0.945871,
2005-08-19, 01:18:00,VALID,920.904,VALID,0,VALID,99.3683,VALID,0,VALID,19.1525,VALID,349,VALID,0.96147,
2005-08-19, 01:19:00,VALID,920.881,VALID,0,VALID,99.3288,VALID,0,VALID,19.156,VALID,355,VALID,1.09928,
2005-08-19, 01:20:01,VALID,920.88,VALID,0,VALID,99.4344,VALID,0,VALID,19.1686,VALID,5,VALID,0.913477,
2005-08-19, 01:21:00,VALID,920.879,VALID,0,VALID,99.4509,VALID,0,VALID,19.1689,VALID,353,VALID,0.691406,
2005-08-19, 01:22:01,VALID,920.881,VALID,0,VALID,99.409,VALID,0.0169808,VALID,19.143,VALID,293,VALID,0.861243,
2005-08-19, 01:23:01,VALID,920.862,VALID,0,VALID,99.4039,VALID,0.0169808,VALID,19.1234,VALID,285,VALID,0.498047,
2005-08-19, 01:24:01,VALID,920.844,VALID,0,VALID,99.3861,VALID,0,VALID,19.1234,VALID,319,VALID,0.580915,
2005-08-19, 01:25:00,VALID,920.825,VALID,0,VALID,99.5056,VALID,0.0339617,VALID,19.114,VALID,342,VALID,0.746466,
2005-08-19, 01:26:00,VALID,920.808,VALID,0,VALID,99.5895,VALID,0,VALID,19.111,VALID,346,VALID,0.611192,
2005-08-19, 01:27:00,VALID,920.795,VALID,0,VALID,99.7688,VALID,0.0169808,VALID,19.1172,VALID,346,VALID,0.606831,
2005-08-19, 01:28:01,VALID,920.789,VALID,0,VALID,99.6264,VALID,0,VALID,19.1045,VALID,335,VALID,0.899148,
2005-08-19, 01:29:01,VALID,920.778,VALID,0,VALID,99.5628,VALID,0.0339617,VALID,19.0983,VALID,317,VALID,0.402778,
2005-08-19, 01:30:00,VALID,920.759,VALID,0,VALID,99.6633,VALID,0,VALID,19.1078,VALID,316,VALID,0.358467,
2005-08-19, 01:31:01,VALID,920.728,VALID,0,VALID,99.7027,VALID,0.0169808,VALID,19.0983,VALID,334,VALID,0.786058,
2005-08-19, 01:32:01,VALID,920.717,VALID,0,VALID,99.718,VALID,0,VALID,19.0683,VALID,345,VALID,1.08848,
2005-08-19, 01:33:01,VALID,920.689,VALID,0,VALID,99.7154,VALID,0,VALID,19.0725,VALID,18,VALID,0.854688,
2005-08-19, 01:34:01,VALID,920.681,VALID,0,VALID,99.8159,VALID,0.0169808,VALID,19.0718,VALID,18,VALID,0.829578,
2005-08-19, 01:35:01,VALID,920.668,VALID,0,VALID,99.7561,VALID,0.0339617,VALID,19.069,VALID,14,VALID,0.907965,
2005-08-19, 01:36:01,VALID,920.656,VALID,0,VALID,99.8235,VALID,0.0339617,VALID,19.0651,VALID,334,VALID,0.863459,
2005-08-19, 01:37:01,VALID,920.649,VALID,0.2,VALID,99.8769,VALID,0,VALID,19.0755,VALID,307,VALID,0.348722,
2005-08-19, 01:38:00,VALID,920.64,VALID,0,VALID,99.8845,VALID,0.0169808,VALID,19.0755,VALID,307,VALID,0.101199,
2005-08-19, 01:39:01,VALID,920.619,VALID,0,VALID,99.9377,VALID,0,VALID,19.0722,VALID,307,VALID,0.154762,
2005-08-19, 01:40:01,VALID,920.61,VALID,0,VALID,100,VALID,0,VALID,19.0817,VALID,322,VALID,0.467586,
2005-08-19, 01:41:01,VALID,920.583,VALID,0,VALID,100,VALID,0,VALID,19.066,VALID,353,VALID,0.734197,
2005-08-19, 01:42:01,VALID,920.565,VALID,0,VALID,100,VALID,0,VALID,19.063,VALID,360,VALID,0.399626,
2005-08-19, 01:43:01,VALID,920.559,VALID,0,VALID,100,VALID,0,VALID,19.0432,VALID,340,VALID,0.730378,
2005-08-19, 01:44:01,VALID,920.549,VALID,0,VALID,100,VALID,0.0169808,VALID,19.0266,VALID,345,VALID,0.360973,
2005-08-19, 01:45:01,VALID,920.539,VALID,0,VALID,100,VALID,0.0509425,VALID,19.0005,VALID,345,VALID,0.384084,
2005-08-19, 01:46:01,VALID,920.523,VALID,0,VALID,100,VALID,0.0339617,VALID,19.0012,VALID,345,VALID,0.432813,
2005-08-19, 01:47:01,VALID,920.51,VALID,0,VALID,100,VALID,0.0509425,VALID,18.995,VALID,345,VALID,0.547763,
2005-08-19, 01:48:01,VALID,920.496,VALID,0,VALID,100,VALID,0.0339617,VALID,18.9722,VALID,345,VALID,0.446023,
2005-08-19, 01:49:01,VALID,920.481,VALID,0,VALID,100,VALID,0.0169808,VALID,18.9588,VALID,1,VALID,0.601017,
2005-08-19, 01:50:01,VALID,920.468,VALID,0,VALID,100,VALID,0.0339617,VALID,18.9463,VALID,11,VALID,0.756541,
2005-08-19, 01:51:01,VALID,920.456,VALID,0,VALID,100,VALID,0,VALID,18.9362,VALID,31,VALID,0.578125,
2005-08-19, 01:52:01,VALID,920.465,VALID,0.2,VALID,100,VALID,0.0509425,VALID,18.9327,VALID,31,VALID,0.0691964,
2005-08-19, 01:53:01,VALID,920.46,VALID,0,VALID,100,VALID,0.0169808,VALID,18.9558,VALID,31,VALID,0.0261719,
2005-08-19, 01:54:01,VALID,920.438,VALID,0,VALID,100,VALID,0.0339617,VALID,18.9431,VALID,32,VALID,0.217969,
2005-08-19, 01:55:01,VALID,920.42,VALID,0,VALID,100,VALID,0,VALID,18.9495,VALID,34,VALID,0.414063,
2005-08-19, 01:56:01,VALID,920.409,VALID,0,VALID,100,VALID,0.0339617,VALID,18.9369,VALID,44,VALID,0.424932,
2005-08-19, 01:57:01,VALID,920.384,VALID,0,VALID,100,VALID,0.0509425,VALID,18.9304,VALID,51,VALID,0.567649,
2005-08-19, 01:58:01,VALID,920.372,VALID,0,VALID,99.9906,VALID,0.0169808,VALID,18.9103,VALID,54,VALID,0.828697,
2005-08-19, 01:59:01,VALID,920.362,VALID,0,VALID,99.9977,VALID,0.0169808,VALID,18.8981,VALID,58,VALID,0.668445,
2005-08-19, 02:00:01,VALID,920.336,VALID,0,VALID,100,VALID,-0.0679233,VALID,18.9028,VALID,49,VALID,0.658984,
2005-08-19, 02:01:01,VALID,920.327,VALID,0,VALID,100,VALID,-0.0849042,VALID,18.8896,VALID,34,VALID,0.865972,
2005-08-19, 02:02:01,VALID,920.318,VALID,0.2,VALID,100,VALID,-0.0339617,VALID,18.8735,VALID,33,VALID,0.575893,
2005-08-19, 02:03:01,VALID,920.312,VALID,0,VALID,100,VALID,-0.0339617,VALID,18.8732,VALID,33,VALID,0.603561,
2005-08-19, 02:04:01,VALID,920.31,VALID,0,VALID,100,VALID,-0.0339617,VALID,18.8539,VALID,33,VALID,0.907703,
2005-08-19, 02:05:01,VALID,920.297,VALID,0,VALID,100,VALID,-0.0339617,VALID,18.8504,VALID,33,VALID,0.827744,
2005-08-19, 02:06:01,VALID,920.294,VALID,0,VALID,100,VALID,-0.0679233,VALID,18.8576,VALID,36,VALID,0.807884,
2005-08-19, 02:07:01,VALID,920.274,VALID,0,VALID,100,VALID,-0.0679233,VALID,18.8675,VALID,41,VALID,0.811942,
2005-08-19, 02:08:01,VALID,920.263,VALID,0,VALID,100,VALID,-0.0169808,VALID,18.87,VALID,41,VALID,0.700781,
2005-08-19, 02:09:01,VALID,920.251,VALID,0,VALID,100,VALID,-0.0509425,VALID,18.8705,VALID,47,VALID,0.737645,
2005-08-19, 02:10:00,VALID,920.233,VALID,0,VALID,100,VALID,-0.0679233,VALID,18.864,VALID,62,VALID,0.875679,
2005-08-19, 02:11:00,VALID,920.199,VALID,0.2,VALID,100,VALID,-0.0849042,VALID,18.8474,VALID,63,VALID,0.851926,
2005-08-19, 02:12:00,VALID,920.182,VALID,0,VALID,99.999,VALID,-0.0679233,VALID,18.8543,VALID,55,VALID,0.718178,
2005-08-19, 02:13:00,VALID,920.171,VALID,0,VALID,99.9919,VALID,0.0169808,VALID,18.8497,VALID,55,VALID,0.512649,
2005-08-19, 02:14:00,VALID,920.162,VALID,0,VALID,99.9735,VALID,0.0169808,VALID,18.8529,VALID,55,VALID,0.393864,
2005-08-19, 02:15:00,VALID,920.146,VALID,0,VALID,99.9964,VALID,0.0509425,VALID,18.8561,VALID,55,VALID,0.141741,
2005-08-19, 02:16:00,VALID,920.133,VALID,0,VALID,100,VALID,0,VALID,18.8626,VALID,55,VALID,0.139382,
2005-08-19, 02:17:00,VALID,920.107,VALID,0,VALID,100,VALID,0.0509425,VALID,18.8559,VALID,55,VALID,0.23125,
2005-08-19, 02:18:00,VALID,920.083,VALID,0,VALID,100,VALID,0.0509425,VALID,18.846,VALID,55,VALID,0.362393,
2005-08-19, 02:19:00,VALID,920.065,VALID,0,VALID,100,VALID,0,VALID,18.8402,VALID,55,VALID,0.478723,
2005-08-19, 02:20:00,VALID,920.035,VALID,0,VALID,100,VALID,0.0169808,VALID,18.8303,VALID,55,VALID,0.597461,
2005-08-19, 02:21:00,VALID,920.021,VALID,0,VALID,100,VALID,0.0339617,VALID,18.8236,VALID,55,VALID,0.563772,
2005-08-19, 02:22:00,VALID,920.012,VALID,0,VALID,100,VALID,0.0679233,VALID,18.8236,VALID,55,VALID,0.681974,
2005-08-19, 02:23:00,VALID,919.992,VALID,0,VALID,100,VALID,0.0339617,VALID,18.8169,VALID,55,VALID,0.676711,
2005-08-19, 02:24:00,VALID,919.98,VALID,0,VALID,100,VALID,0.0169808,VALID,18.8137,VALID,58,VALID,0.654018,
2005-08-19, 02:25:00,VALID,919.978,VALID,0,VALID,100,VALID,0.0679233,VALID,18.8068,VALID,59,VALID,0.479469,
2005-08-19, 02:26:00,VALID,919.982,VALID,0.2,VALID,99.9957,VALID,0.0339617,VALID,18.8174,VALID,67,VALID,0.543679,
2005-08-19, 02:27:00,VALID,919.978,VALID,0,VALID,99.9977,VALID,0.0509425,VALID,18.8038,VALID,73,VALID,0.417878,
2005-08-19, 02:28:00,VALID,919.979,VALID,0,VALID,100,VALID,0.0339617,VALID,18.8174,VALID,78,VALID,0.523624,
2005-08-19, 02:29:00,VALID,919.974,VALID,0,VALID,100,VALID,0,VALID,18.808,VALID,86,VALID,0.372582,
2005-08-19, 02:30:00,VALID,919.964,VALID,0,VALID,100,VALID,-0.101885,VALID,18.8124,VALID,101,VALID,0.608445,
2005-08-19, 02:31:00,VALID,919.955,VALID,0,VALID,100,VALID,-0.101885,VALID,18.8089,VALID,106,VALID,0.617686,
2005-08-19, 02:32:00,VALID,919.953,VALID,0,VALID,100,VALID,-0.0849042,VALID,18.8094,VALID,112,VALID,0.728198,
2005-08-19, 02:33:00,VALID,919.946,VALID,0,VALID,100,VALID,-0.0849042,VALID,18.8124,VALID,117,VALID,0.585352,
2005-08-19, 02:34:00,VALID,919.948,VALID,0,VALID,100,VALID,-0.0849042,VALID,18.8225,VALID,117,VALID,0.386814,
2005-08-19, 02:35:00,VALID,919.947,VALID,0,VALID,100,VALID,-0.101885,VALID,18.8091,VALID,117,VALID,0.436384,
2005-08-19, 02:36:00,VALID,919.931,VALID,0,VALID,100,VALID,-0.101885,VALID,18.8154,VALID,117,VALID,0.492569,
2005-08-19, 02:37:00,VALID,919.926,VALID,0,VALID,100,VALID,-0.101885,VALID,18.8223,VALID,118,VALID,0.633557,
2005-08-19, 02:38:00,VALID,919.914,VALID,0,VALID,100,VALID,-0.101885,VALID,18.8186,VALID,120,VALID,0.465774,
2005-08-19, 02:39:00,VALID,919.898,VALID,0,VALID,100,VALID,-0.0509425,VALID,18.8057,VALID,120,VALID,0.492014,
2005-08-19, 02:40:00,VALID,919.894,VALID,0,VALID,100,VALID,-0.101885,VALID,18.8128,VALID,123,VALID,0.281441,
2005-08-19, 02:41:00,VALID,919.873,VALID,0,VALID,100,VALID,-0.0849042,VALID,18.8029,VALID,123,VALID,0.459449,
2005-08-19, 02:42:00,VALID,919.854,VALID,0,VALID,100,VALID,-0.101885,VALID,18.79,VALID,120,VALID,0.496094,
2005-08-19, 02:43:00,VALID,919.845,VALID,0,VALID,100,VALID,-0.118866,VALID,18.793,VALID,119,VALID,0.518999,
2005-08-19, 02:44:00,VALID,919.835,VALID,0,VALID,100,VALID,-0.0509425,VALID,18.7891,VALID,119,VALID,0.43471,
2005-08-19, 02:45:00,VALID,919.829,VALID,0,VALID,100,VALID,0,VALID,18.792,VALID,127,VALID,0.586648,
2005-08-19, 02:46:00,VALID,919.818,VALID,0.2,VALID,100,VALID,0,VALID,18.8013,VALID,114,VALID,0.545833,
2005-08-19, 02:47:00,VALID,919.821,VALID,0,VALID,100,VALID,0,VALID,18.805,VALID,127,VALID,0.72691,
2005-08-19, 02:48:00,VALID,919.813,VALID,0,VALID,100,VALID,0,VALID,18.7948,VALID,136,VALID,0.774962,
2005-08-19, 02:49:00,VALID,919.802,VALID,0,VALID,100,VALID,0,VALID,18.7923,VALID,131,VALID,0.811012,
2005-08-19, 02:50:00,VALID,919.795,VALID,0,VALID,100,VALID,0,VALID,18.7955,VALID,124,VALID,0.815044,
2005-08-19, 02:51:00,VALID,919.802,VALID,0,VALID,100,VALID,-0.0169808,VALID,18.7821,VALID,125,VALID,0.726926,
2005-08-19, 02:52:00,VALID,919.785,VALID,0,VALID,100,VALID,0,VALID,18.7724,VALID,128,VALID,0.505682,
2005-08-19, 02:53:00,VALID,919.771,VALID,0,VALID,100,VALID,-0.0169808,VALID,18.7854,VALID,108,VALID,0.631445,
2005-08-19, 02:54:00,VALID,919.776,VALID,0,VALID,100,VALID,0,VALID,18.7787,VALID,112,VALID,0.656929,
2005-08-19, 02:55:00,VALID,919.751,VALID,0,VALID,100,VALID,0,VALID,18.7821,VALID,111,VALID,0.491443,
2005-08-19, 02:56:00,VALID,919.746,VALID,0,VALID,100,VALID,0,VALID,18.7824,VALID,110,VALID,0.686955,
2005-08-19, 02:57:00,VALID,919.739,VALID,0,VALID,100,VALID,0,VALID,18.7856,VALID,117,VALID,0.72561,
2005-08-19, 02:58:00,VALID,919.73,VALID,0,VALID,100,VALID,0,VALID,18.7824,VALID,125,VALID,0.997396,
2005-08-19, 02:59:00,VALID,919.728,VALID,0,VALID,100,VALID,0.0509425,VALID,18.7881,VALID,133,VALID,0.835756,
2005-08-19, 03:00:00,VALID,919.707,VALID,0.2,VALID,100,VALID,0.0169808,VALID,18.7918,VALID,139,VALID,0.96804,
2005-08-19, 03:01:00,VALID,919.712,VALID,0,VALID,100,VALID,0,VALID,18.795,VALID,145,VALID,0.526172,
2005-08-19, 03:02:00,VALID,919.703,VALID,0,VALID,100,VALID,0,VALID,18.7854,VALID,136,VALID,0.653125,
2005-08-19, 03:03:00,VALID,919.69,VALID,0,VALID,100,VALID,0,VALID,18.7784,VALID,134,VALID,0.772693,
2005-08-19, 03:04:00,VALID,919.69,VALID,0,VALID,100,VALID,0.0339617,VALID,18.7821,VALID,134,VALID,0.713867,
2005-08-19, 03:05:00,VALID,919.679,VALID,0,VALID,100,VALID,0,VALID,18.7821,VALID,128,VALID,0.705412,
2005-08-19, 03:06:00,VALID,919.666,VALID,0,VALID,100,VALID,0,VALID,18.7722,VALID,133,VALID,0.810547,
2005-08-19, 03:07:00,VALID,919.656,VALID,0,VALID,100,VALID,0,VALID,18.7625,VALID,121,VALID,0.710938,
2005-08-19, 03:08:00,VALID,919.646,VALID,0,VALID,100,VALID,0,VALID,18.7533,VALID,136,VALID,0.598474,
2005-08-19, 03:09:00,VALID,919.632,VALID,0,VALID,100,VALID,0,VALID,18.7464,VALID,140,VALID,0.957849,
2005-08-19, 03:10:00,VALID,919.615,VALID,0,VALID,100,VALID,0,VALID,18.7468,VALID,141,VALID,1.24907,
2005-08-19, 03:11:00,VALID,919.608,VALID,0,VALID,100,VALID,0,VALID,18.7337,VALID,141,VALID,0.950036,
2005-08-19, 03:12:00,VALID,919.58,VALID,0,VALID,100,VALID,0.0169808,VALID,18.7208,VALID,148,VALID,0.969322,
2005-08-19, 03:13:00,VALID,919.569,VALID,0,VALID,100,VALID,0.0169808,VALID,18.7242,VALID,144,VALID,0.963542,
2005-08-19, 03:14:00,VALID,919.549,VALID,0,VALID,100,VALID,-0.0169808,VALID,18.7275,VALID,140,VALID,1.03198,
2005-08-19, 03:15:00,VALID,919.534,VALID,0.2,VALID,100,VALID,0,VALID,18.7101,VALID,132,VALID,0.972317,
2005-08-19, 03:16:00,VALID,919.522,VALID,0,VALID,100,VALID,0,VALID,18.7009,VALID,142,VALID,1.08026,
2005-08-19, 03:17:00,VALID,919.52,VALID,0,VALID,100,VALID,-0.0169808,VALID,18.7111,VALID,134,VALID,1.36242,
2005-08-19, 03:18:00,VALID,919.5,VALID,0,VALID,100,VALID,0,VALID,18.7245,VALID,137,VALID,1.20912,
2005-08-19, 03:19:00,VALID,919.506,VALID,0,VALID,100,VALID,0,VALID,18.7173,VALID,128,VALID,0.683408,
2005-08-19, 03:20:00,VALID,919.479,VALID,0,VALID,100,VALID,0,VALID,18.7079,VALID,132,VALID,0.943314,
2005-08-19, 03:21:00,VALID,919.48,VALID,0,VALID,100,VALID,0.0169808,VALID,18.7081,VALID,127,VALID,0.919271,
2005-08-19, 03:22:00,VALID,919.477,VALID,0,VALID,100,VALID,-0.0169808,VALID,18.7086,VALID,132,VALID,1.14382,
2005-08-19, 03:23:00,VALID,919.474,VALID,0,VALID,100,VALID,-0.0169808,VALID,18.6883,VALID,140,VALID,1.01677,
2005-08-19, 03:24:00,VALID,919.456,VALID,0,VALID,100,VALID,0.0169808,VALID,18.6885,VALID,140,VALID,0.856831,
2005-08-19, 03:25:00,VALID,919.431,VALID,0,VALID,100,VALID,0,VALID,18.682,VALID,134,VALID,1.123,
2005-08-19, 03:26:00,VALID,919.413,VALID,0,VALID,100,VALID,-0.0169808,VALID,18.6627,VALID,124,VALID,0.835175,
2005-08-19, 03:27:00,VALID,919.385,VALID,0,VALID,100,VALID,0.0169808,VALID,18.6594,VALID,140,VALID,0.977095,
2005-08-19, 03:28:00,VALID,919.364,VALID,0,VALID,100,VALID,0.0339617,VALID,18.6493,VALID,137,VALID,1.05313,
2005-08-19, 03:29:00,VALID,919.352,VALID,0,VALID,100,VALID,-0.0339617,VALID,18.6465,VALID,140,VALID,0.798314,
2005-08-19, 03:30:00,VALID,919.345,VALID,0,VALID,100,VALID,-0.101885,VALID,18.6512,VALID,140,VALID,1.08464,
2005-08-19, 03:31:00,VALID,919.323,VALID,0,VALID,100,VALID,-0.101885,VALID,18.6539,VALID,144,VALID,1.23242,
2005-08-19, 03:32:00,VALID,919.312,VALID,0,VALID,100,VALID,-0.0849042,VALID,18.6509,VALID,141,VALID,0.92242,
2005-08-19, 03:33:00,VALID,919.304,VALID,0,VALID,100,VALID,-0.0849042,VALID,18.6479,VALID,146,VALID,0.741279,
2005-08-19, 03:34:00,VALID,919.285,VALID,0,VALID,100,VALID,-0.0679233,VALID,18.6345,VALID,141,VALID,0.767223,
2005-08-19, 03:35:00,VALID,919.28,VALID,0,VALID,100,VALID,-0.101885,VALID,18.6283,VALID,140,VALID,1.0928,
2005-08-19, 03:36:00,VALID,919.263,VALID,0,VALID,100,VALID,-0.101885,VALID,18.6315,VALID,146,VALID,1.13245,
2005-08-19, 03:37:00,VALID,919.256,VALID,0,VALID,100,VALID,-0.0849042,VALID,18.6318,VALID,136,VALID,1.09775,
2005-08-19, 03:38:00,VALID,919.253,VALID,0,VALID,100,VALID,-0.101885,VALID,18.6119,VALID,135,VALID,1.26448,
2005-08-19, 03:39:00,VALID,919.241,VALID,0,VALID,100,VALID,-0.101885,VALID,18.6161,VALID,140,VALID,0.677951,
2005-08-19, 03:40:00,VALID,919.23,VALID,0,VALID,100,VALID,-0.0849042,VALID,18.6124,VALID,137,VALID,0.411776,